Retalhuleu Airport
MGRT : now visible

Airfield :











YOU CAN JOIN US ON...

 
LOGIN :

Register | Disclaimer

   EN    FR    IT 

 









Legend :    VFR   Marginal VFR   IFR   Intensive IFR   Very Intensive IFR
Visi :
Ceiling :
>= 8 km
>= 3000ft
5 to 8 km
1000 to 3000 ft
1500m to 5 km
500 to 1000 ft
800 to 1500m
200 to 500 ft
< 800m
< 200 ft
Symbols :   Thunderstorms  Fog  Heavy snow  Heavy precipitations  Wind > 20 kt






- Airport Elevation : 656 ft
- IATA code : RER


MGRT - Retalhuleu

CURRENT METAR :
  • 282100Z 18010KT 7000 TSRA BKN020 FEW025CB 28/24 Q1014 A2994 CB/TS SE/S VOL,SANTA MARIA Y SANTIAGUITO EN ACTIVIDAD

EXPIRED METARs :
  • 282000Z 24006KT 9999 TS FEW020TCU FEW025CB BKN200 33/23 Q1013 A2991 CB/TS N/SSE TCU SW VOL,SANTA MARIA Y SANTIAGUITO EN ACTIVIDAD
  • 281900Z 21010KT 9999 FEW020TCU BKN200 33/23 Q1014 A2994 TCU N/NE VOL,SANTA MARIA Y SANTIAGUITO EN ACTIVIDAD

TAF N/A
MHTG FIR / North America



MET'MAP, your aeronautical weather chart ! - Copyright ORBIFLY December 2007 - Disclaimer

ORBIFLY MET'MAP TEAM :

Programming & Development : Alexandra Zaïnal
Concept & original design : Baudouin d'Aumeries
Assistance for programming : Marc-Olivier Méhu
Technical & hardware support : Manuel Goepfert

Contact : metmap@orbifly.com




SOURCES & CREDITS :

   NOAA       Earth
Advisory